www.pogodaiklimat.ru

Погода и климат >> Архив погоды >> Дания >> Kegnaes


ПОГОДА в Kegnaes

  • Прогноз погоды в Kegnaes
  • Монитор погоды в Kegnaes
  • Климат города

АРХИВ ПОГОДЫ в Kegnaes

Время (UTC), дата Ветер
(напр.,м/с)
 
Видим.   Явления Облачность Т
(С)
Тd
(С)
f
(%)
Тe
(С)
Тes
(С)
Комфортность P
(гПа)
Po
(гПа)
Тmin
(С)
Tmax
(С)
R
(мм)
R24
(мм)
S
(см)
07 10.12 ЮЗ 12 3500 м слаб. ливневой дождь 9/9 120 м
[]
+1.1 +0.5 96 -7 -7 992.3 990.0 0.1
08 10.12 ЮЗ 13 3600 м слаб. снег {ливн. осадки} 9/9 90 м
[]
+1.0 +0.5 96 -8 -8 991.5 989.2 0.2
09 10.12 ЮЗ 13 12 км в посл. час дождь {ливн. осадки, снег} 4/4 180 м
[]
+1.3 +0.3 93 -8 -8 990.6 988.3 0.4
11 10.12 Ю 10 17 км 6/6 450 м
[]
+1.3 -0.8 86 -7 -7 988.5 986.2
10 10.12 Ю 12 14 км 6/6 800 м
[]
+1.4 -0.3 88 -7 -7 989.8 987.5
12 10.12 Ю 9 21 км {ливн. осадки, снег} 10/10 420 м
[]
+1.0 -1.5 83 -7 -7 987.4 985.1
13 10.12 Ю 10 27 км 6/6 420 м
[]
+1.3 -1.5 82 -6 -6 986.2 983.9
14 10.12 Ю 10 40 км 6/6 540 м
[]
+1.7 -1.4 80 -6 -6 985.1 982.8
15 10.12 Ю 9 50 км 6/6 600 м
[]
+1.7 -2.1 76 -6 -6 984.2 981.9
17 10.12 ЮВ 11 35 км 6/6 450 м
[]
+2.1 -0.7 82 -6 -6 982.5 980.2
16 10.12 ЮВ 9 45 км 6/6 630 м
[]
+2.0 -1.8 76 -5 -5 983.4 981.1 0.1
18 10.12 Ю 11 4700 м слаб. снег {дождь} 10/10 90 м
[]
+0.8 +0.1 95 -8 -8 981.8 979.5 +0.5 +2.2 0.4
19 10.12 ЮВ 10 26 км слаб. ливневой дождь {снег} 4/4 330 м
[]
+1.1 -0.8 87 -7 -7 981.2 979.0 0.1
20 10.12 ЮВ 13 30 км 4/4 420 м
[]
+1.6 -0.7 85 -7 -7 980.4 978.2 0.1
21 10.12 ЮВ 12 30 км {ливн. осадки, снег} 6/6 480 м
[]
+1.8 -1.4 79 -6 -6 980.5 978.2 0.2
23 10.12 ЮВ 11 35 км 6/6 630 м
[]
+1.5 -2.8 73 -6 -6 980.1 977.8
22 10.12 В 13 35 км 6/6 600 м
[]
+1.8 -1.6 78 -6 -6 980.3 978.1
00 11.12 В 10 5000 м слаб. ливневой дождь {снег} 9/9 90 м
[]
+1.1 -1.1 85 -7 -7 980.3 978.0 0.0
01 11.12 В 12 22 км слаб. ливневой дождь 6/6 420 м
[]
+1.1 -1.8 81 -7 -7 980.6 978.3 0.1
02 11.12 В 10 27 км слаб. ливневой дождь 6/6 450 м
[]
+1.0 -1.9 81 -7 -7 981.7 979.4
03 11.12 В 11 45 км в посл. час дождь {ливн. осадки} 6/6 400 м
[]
+1.1 -1.7 82 -7 -7 982.7 980.4 0.1
05 11.12 СВ 6 40 км 6/6 540 м
[]
+0.9 -2.2 80 -5 -5 984.3 982.0
04 11.12 СВ 8 29 км 4/4 330 м
[]
+1.1 -1.9 80 -6 -6 983.7 981.4
06 11.12 С 4 50 км {ливн. осадки, дождь} 1/1 600 м
[]
+1.1 -2.1 79 -4 -4 986.4 984.1 +0.5 +2.0
07 11.12 СВ 6 35 км 1/1 570 м
[]
+1.1 -1.8 81 -5 -5 986.0 983.7
08 11.12 СВ 8 40 км 1/1 450 м
[]
+1.0 -2.0 80 -6 -6 985.8 983.5
09 11.12 СВ 9 35 км 1/1 300 м
[]
+1.3 -1.9 79 -6 -6 986.6 984.3
11 11.12 СВ 7 40 км 1/1 630 м
[]
+1.7 -1.5 79 -5 -5 988.2 985.9
10 11.12 СВ 7 30 км 4/4 330 м
[]
+1.5 -1.7 79 -5 -5 988.2 985.9
12 11.12 СВ 8 30 км 1/1 300 м
[]
+1.6 -1.2 82 -5 -5 987.0 984.7
13 11.12 СВ 8 30 км 1/1 540 м
[]
+1.9 -1.1 80 -5 -5 987.6 985.3
14 11.12 СВ 8 30 км 1/1 480 м
[]
+1.9 -0.9 82 -5 -5 986.8 984.5
15 11.12 СВ 9 24 км 6/6 420 м
[]
+1.8 -0.9 82 -6 -6 986.0 983.7
17 11.12 СВ 9 6000 м слаб. ледяной дождь {снег} 10/10 120 м
[]
+0.7 -0.1 94 -7 -7 985.4 983.1 0.6
16 11.12 СВ 10 13 км слаб. морось {ливн. осадки} 6/6 240 м
[]
+2.0 -0.3 85 -5 -5 986.2 983.9
18 11.12 СВ 7 5000 м слаб. снег {ливн. осадки} 10/10 150 м
[]
+0.5 -0.3 94 -7 -7 986.4 984.1 +0.5 +2.2 1
19 11.12 СВ 7 5000 м слаб. снег 10/10 60 м
[]
+0.3 -0.2 96 -7 -7 985.8 983.5 0.4
20 11.12 СВ 9 16 км слаб. дождь {снег} 9/9 180 м
[]
+0.7 0.0 95 -7 -7 985.0 982.7 0.8
21 11.12 СВ 9 12 км слаб. дождь {снег} 10/10 180 м
[]
+1.0 +0.1 94 -7 -7 985.1 982.8 2
23 11.12 СВ 7 11 км слаб. дождь 10/10 120 м
[]
+0.9 +0.4 96 -6 -6 985.0 982.7 0.8
22 11.12 СВ 9 н/о {дождь} 10/10 150 м
[]
+0.7 -0.1 94 -7 -7 985.0 982.8 1
00 12.12 СВ 6 16 км слаб. морось {снег, дождь} 9/9 150 м
[]
+1.2 +0.5 95 -5 -5 984.6 982.4 2
01 12.12 С 5 8000 м слаб. дождь {морось} 10/10 180 м
[]
+1.0 +0.3 95 -5 -5 985.0 982.7 0.5
02 12.12 С 5 9000 м слаб. дождь 9/9 120 м
[]
+0.7 +0.1 96 -5 -5 985.4 983.1 0.3
03 12.12 С 5 17 км слаб. морось {дождь} 6/6 150 м
[]
+1.0 +0.5 96 -5 -5 985.6 983.4 0.9
05 12.12 С 6 40 км 10/10 270 м
[]
+2.1 +1.2 94 -4 -4 987.5 985.3
04 12.12 С 6 50 км в посл. час морось {ливн. осадки} 6/6 180 м
[]
+1.5 +0.9 96 -5 -5 986.3 984.0
06 12.12 С 7 35 км {ливн. осадки, дождь} 9/9 240 м
[]
+2.2 +1.2 93 -4 -4 988.1 985.8 +0.1 +2.3 0.0
07 12.12 С 7 50 км {ливн. осадки, осадки} 9/9 300 м
[]
+2.4 +0.9 90 -4 -4 990.2 987.9
08 12.12 С 7 19 км слаб. дождь {ливн. осадки} 9/9 270 м
[]
+2.1 +0.8 91 -4 -4 991.7 989.4 0.2
09 12.12 С 6 40 км в посл. час морось {ливн. осадки, дождь} 6/6 420 м
[]
+2.3 +0.1 85 -4 -4 993.6 991.3 0.2
11 12.12 СЗ 7 35 км в посл. час морось {ливн. осадки} 9/9 570 м
[]
+2.1 -0.7 82 -4 -4 996.9 994.6
10 12.12 СЗ 6 35 км 9/9 360 м
[]
+1.9 +0.1 88 -4 -4 995.4 993.1
12 12.12 СЗ 6 45 км {ливн. осадки, дождь} 1/1 750 м
[]
+2.0 -1.2 79 -4 -4 998.2 995.9 0.0
13 12.12 СЗ 5 30 км 6/6 480 м
[]
+1.9 -0.8 82 -4 -4 999.4 997.1
14 12.12 СЗ 6 35 км 1/1 700 м
[]
+1.6 -1.2 82 -4 -4 1000.7 998.4
15 12.12 СЗ 5 35 км ясно +1.3 -1.7 80 -4 -4 1002.4 1000.1
17 12.12 З 5 45 км ясно +1.9 -0.9 82 -4 -4 1004.7 1002.3
16 12.12 З 4 40 км ясно +1.0 -1.9 81 -4 -4 1003.7 1001.4
18 12.12 ЮЗ 7 29 км ясно +2.4 +0.2 85 -4 -4 1005.4 1003.0 +1.0 +2.5
19 12.12 ЮЗ 8 25 км ливневой дождь 1/1 120 м
[]
+2.6 +0.8 88 -4 -4 1006.1 1003.8
20 12.12 ЮЗ 8 30 км {ливн. осадки} ясно +2.5 +0.8 89 -4 -4 1006.0 1003.7
21 12.12 ЮЗ 10 30 км {ливн. осадки, дождь} ясно +2.4 +0.9 90 -5 -5 1006.0 1003.7 0.0
23 12.12 ЮЗ 14 14 км 1/1 150 м
[]
+2.9 +1.6 91 -5 -5 1006.2 1003.9
22 12.12 ЮЗ 11 23 км ясно +2.8 +1.4 90 -5 -5 1005.9 1003.5
00 13.12 ЮЗ 14 11 км {ливн. осадки, дождь} 1/1 240 м
[]
+2.7 +1.5 92 -6 -6 1006.3 1003.9 0.1
01 13.12 ЮЗ 16 10 км 6/6 210 м
[]
+2.6 +1.3 91 -6 -6 1006.3 1004.0
02 13.12 ЮЗ 16 9000 м дымка 9/9 210 м
[]
+2.1 +0.8 91 -7 -7 1006.4 1004.0
03 13.12 ЮЗ 15 7000 м дымка 9/9 210 м
[]
+1.8 +0.5 91 -7 -7 1006.2 1003.9
05 13.12 ЮЗ 13 7000 м дымка 1/1 300 м
[]
+1.7 +0.1 89 -7 -7 1005.0 1002.7
04 13.12 ЮЗ 14 7000 м дымка 6/6 270 м
[]
+1.7 +0.2 90 -7 -7 1005.6 1003.3
06 13.12 ЮЗ 13 7000 м дымка 1/1 210 м
[]
+1.8 +0.3 90 -7 -7 1004.1 1001.8 +1.4 +3.1
07 13.12 Ю 14 8000 м дымка 1/1 210 м
[]
+2.0 +0.3 88 -7 -7 1003.1 1000.8
08 13.12 Ю 14 9000 м дымка 1/1 240 м
[]
+2.2 +0.5 89 -6 -6 1002.1 999.8
09 13.12 Ю 14 12 км {дымка} 4/4 240 м
[]
+2.2 +0.1 86 -6 -6 1000.9 998.6
11 13.12 Ю 15 14 км {ливн. осадки} 4/4 210 м
[]
+2.5 +0.8 89 -6 -6 998.0 995.7
10 13.12 Ю 14 10 км слаб. ливневой дождь {осадки} 4/4 180 м
[]
+2.4 +0.8 89 -6 -6 999.7 997.4
12 13.12 Ю 15 11 км слаб. ливневой дождь {морось} 9/9 210 м
[]
+2.6 +1.3 91 -6 -6 996.5 994.2 0.0
13 13.12 Ю 14 9000 м слаб. дождь {ливн. осадки} 9/9 180 м
[]
+2.3 +1.4 94 -6 -6 995.2 992.9 0.4
14 13.12 Ю 13 9000 м слаб. дождь {морось} 9/9 180 м
[]
+2.2 +1.4 94 -6 -6 994.0 991.7 0.4
15 13.12 Ю 14 10 км слаб. дождь {ливн. осадки} 9/9 180 м
[]
+2.0 +1.4 96 -7 -7 992.8 990.5 1
17 13.12 Ю 12 5000 м слаб. дождь 10/10 90 м
[]
+1.4 +0.9 96 -7 -7 990.6 988.3 0.9
16 13.12 Ю 12 10 км слаб. дождь {морось} 9/9 150 м
[]
+1.9 +1.2 95 -6 -6 991.7 989.4 0.4
18 13.12 Ю 12 9000 м слаб. дождь {ливн. осадки, снег} 9/9 90 м
[]
+1.4 +1.0 97 -7 -7 989.3 987.0 +1.2 +2.8 2
19 13.12 Ю 12 7000 м в посл. час морось {дождь} 10/10 90 м
[]
+1.7 +1.2 96 -7 -7 988.2 985.9
20 13.12 ЮЗ 12 3700 м дымка 10/10 60 м
[]
+1.9 +1.5 97 -7 -7 987.0 984.8
21 13.12 Ю 10 1800 м дымка {дождь} 9/9 30 м
[]
+2.0 +1.6 97 -6 -6 985.8 983.5 0.0
23 13.12 Ю 12 4800 м дымка 9/9 120 м
[]
+3.0 +2.6 97 -5 -5 982.8 980.6
22 13.12 Ю 10 2100 м дымка 9/9 60 м
[]
+2.7 +2.4 98 -5 -5 984.3 982.1
00 14.12 Ю 12 10 км {дождь, дымка} 9/9 210 м
[]
+3.4 +2.7 95 -4 -4 981.0 978.8
01 14.12 Ю 13 5000 м дождь {морось} 9/9 180 м
[]
+2.7 +1.9 94 -6 -6 979.9 977.6 1
02 14.12 Ю 13 11 км слаб. дождь 9/9 180 м
[]
+2.4 +1.7 95 -6 -6 978.5 976.2 1
03 14.12 Ю 11 6000 м слаб. снег {дождь} 9/9 60 м
[]
+1.3 +0.8 96 -7 -7 977.5 975.2 4
05 14.12 З 9 40 км в посл. час дождь {ливн. осадки, морось} 1/1 800 м
[]
+3.5 +2.2 91 -3 -3 978.5 976.2
04 14.12 З 10 4800 м слаб. ливневой дождь {снег} 9/9 150 м
[]
+2.5 +2.0 96 -5 -5 977.6 975.3 0.5
06 14.12 З 10 20 км слаб. ливневой дождь {снег} 6/6 210 м
[]
+4.0 +2.9 93 -3 -3 979.4 977.2 +1.0 +4.1 0.5
07 14.12 З 12 27 км в посл. час дождь {ливн. осадки} ясно +4.1 +2.7 91 -3 -3 980.3 978.1 0.1
08 14.12 З 12 29 км ясно +4.3 +2.3 87 -3 -3 981.1 978.8
09 14.12 ЮЗ 12
{19}
30 км осадки {ливн. осадки} 1/1 570 м
[]
+4.3 +2.1 86 -3 -3 982.4 980.2 0.1
11 14.12 ЮЗ 11 30 км ливневой дождь {морось} 1/1 210 м
[]
+3.5 +1.7 88 -4 -4 983.4 981.2
10 14.12 ЮЗ 10 29 км в посл. час морось {ливн. осадки} 1/1 420 м
[]
+4.1 +1.8 85 -3 -3 983.1 980.8
12 14.12 ЮЗ 13 35 км {ливн. осадки, морось} ясно +4.0 +1.7 85 -4 -4 983.5 981.3 0.0
13 14.12 ЮЗ 15 24 км слаб. ливневой дождь 4/4 150 м
[]
+2.9 +1.4 90 -6 -6 984.3 982.0
14 14.12 ЮЗ 11 14 км слаб. ливневой дождь 6/6 90 м
[]
+3.2 +1.8 91 -4 -4 984.8 982.5 0.2
15 14.12 ЮЗ 12 45 км в посл. час дождь {ливн. осадки} 1/1 330 м
[]
+2.9 +1.4 90 -5 -5 985.0 982.7 0.2
17 14.12 ЮЗ 14 24 км 1/1 150 м
[]
+3.1 +1.8 91 -5 -5 985.4 983.1
16 14.12 ЮЗ 11 50 км 1/1 840 м
[]
+3.0 +1.4 89 -4 -4 985.4 983.2
18 14.12 ЮЗ 12 20 км осадки {ливн. осадки, дождь} 1/1 240 м
[]
+3.2 +1.9 91 -5 -5 985.9 983.6 +2.6 +4.8 0.0
19 14.12 ЮЗ 11 22 км в посл. час дождь {ливн. осадки} 1/1 150 м
[]
+3.3 +2.0 91 -4 -4 986.4 984.1 0.2
20 14.12 ЮЗ 13 19 км {ливн. осадки, морось} 1/1 150 м
[]
+3.1 +1.8 91 -5 -5 986.6 984.4
21 14.12 ЮЗ 12 13 км {ливн. осадки, дождь} 1/1 150 м
[]
+3.2 +2.0 92 -5 -5 986.8 984.5 0.2
23 14.12 ЮЗ 11 13 км 6/6 270 м
[]
+3.5 +2.1 91 -4 -4 987.3 985.0
22 14.12 ЮЗ 12 10 км 6/6 240 м
[]
+3.5 +2.2 91 -4 -4 987.0 984.7
00 15.12 ЮЗ 8 12 км {ливн. осадки, дождь} 9/9 240 м
[]
+3.5 +2.1 91 -3 -3 987.6 985.4
01 15.12 ЮЗ 8 7000 м ливневой дождь {морось} 9/9 180 м
[]
+3.5 +2.5 93 -3 -3 987.9 985.6 0.1
02 15.12 ЮЗ 9 5000 м слаб. ливневой дождь 6/6 150 м
[]
+3.2 +2.4 94 -4 -4 988.2 985.9
03 15.12 ЮЗ 11 6000 м слаб. ливневой дождь {морось} 9/9 180 м
[]
+3.2 +2.2 93 -4 -4 988.4 986.2 0.4
05 15.12 ЮЗ 10 5000 м слаб. ливневой дождь 9/9 180 м
[]
+3.1 +2.2 94 -4 -4 989.6 987.3 0.1
04 15.12 ЮЗ 10 6000 м дымка {ливн. осадки} 9/9 180 м
[]
+3.1 +2.2 94 -4 -4 989.1 986.8
06 15.12 ЮЗ 10 6000 м морось {ливн. осадки, дождь} 9/9 180 м
[]
+2.7 +1.9 94 -5 -5 990.2 987.9 +2.6 +3.7 1
07 15.12 ЮЗ 10 5000 м в посл. час дождь {морось} 9/9 180 м
[]
+2.9 +2.1 94 -4 -4 990.7 988.5 0.1
08 15.12 ЮЗ 10 5000 м в посл. час дождь {ливн. осадки} 9/9 180 м
[]
+2.7 +1.9 94 -5 -5 991.6 989.4 0.2
09 15.12 З 9 6000 м осадки {ливн. осадки, дождь} 9/9 180 м
[]
+2.9 +1.9 93 -4 -4 992.3 990.0 0.3
11 15.12 З 7 10 км {ливн. осадки, морось} 6/6 210 м
[]
+3.5 +2.5 93 -3 -2 993.3 991.0
10 15.12 З 7 5000 м дымка {ливн. осадки, морось} 9/9 150 м
[]
+3.2 +2.2 93 -3 -3 993.0 990.7
12 15.12 З 6 8000 м в посл. час дождь {ливн. осадки} 6/6 150 м
[]
+3.9 +2.9 93 -2 -2 993.7 991.4 0.1
13 15.12 З 6 7000 м в посл. час дождь {ливн. осадки} 6/6 210 м
[]
+4.2 +3.2 93 -1 -1 994.3 992.0 0.6
14 15.12 З 4 3400 м ливневой дождь 9/9 180 м
[]
+4.1 +3.2 94 -1 -1 994.9 992.6 0.9
15 15.12 З 8 7000 м в посл. час дождь {ливн. осадки} 9/9 240 м
[]
+4.1 +3.1 93 -2 -2 995.4 993.1 3
17 15.12 З 9 9000 м слаб. ливневой дождь 9/9 240 м
[]
+3.6 +2.6 93 -3 -3 996.2 993.9 1
16 15.12 З 8 4700 м слаб. ливневой дождь {морось} 9/9 210 м
[]
+3.6 +2.6 93 -3 -3 996.0 993.7 0.1
18 15.12 З 8 10 км в посл. час морось {ливн. осадки} 9/9 210 м
[]
+3.6 +2.7 94 -3 -3 996.6 994.3 +2.3 +4.3 1
19 15.12 З 8 29 км 6/6 210 м
[]
+3.2 +2.3 94 -3 -3 997.0 994.7
20 15.12 З 7 8000 м дымка 4/4 150 м
[]
+3.1 +2.3 94 -3 -3 997.5 995.2
21 15.12 З 8 7000 м дымка 1/1 150 м
[]
+3.0 +2.2 94 -4 -4 997.9 995.6
23 15.12 З 7 18 км 6/6 150 м
[]
+3.2 +2.3 94 -3 -3 998.4 996.1
22 15.12 З 8 11 км 1/1 330 м
[]
+3.0 +2.1 94 -4 -4 998.1 995.8
00 16.12 З 6 29 км ясно +3.0 +2.2 94 -3 -3 998.4 996.1
01 16.12 З 7 40 км ясно +3.2 +2.2 93 -3 -3 998.7 996.4
02 16.12 З 7 35 км ясно +3.3 +2.0 91 -3 -3 999.0 996.7
03 16.12 З 5 35 км ясно +2.8 +0.9 87 -2 -2 999.6 997.3
05 16.12 З 4 30 км ясно +2.5 +0.6 87 -2 -2 1000.3 998.0
04 16.12 З 5 30 км ясно +2.9 +0.9 87 -2 -2 999.9 997.6
06 16.12 З 4 30 км ясно +2.1 +0.1 87 -3 -3 1000.8 998.4 +2.0 +3.6
07 16.12 З 4 27 км ясно +1.7 0.0 88 -3 -3 1001.3 999.0
08 16.12 З 4 21 км ясно +1.5 0.0 90 -3 -3 1001.9 999.6
09 16.12 З 4 28 км ясно +2.1 +0.6 90 -3 -2 1002.6 1000.3
11 16.12 З 5 45 км ясно +3.9 +1.2 83 -1 -0 1003.3 1000.9
10 16.12 З 3 40 км ясно +2.8 +0.9 87 -1 -0 1003.2 1000.9
12 16.12 З 5 35 км ясно +4.1 +1.0 80 -1 -0 1003.5 1001.2
13 16.12 З 5 40 км 1/1 1230 м
[]
+4.3 +1.3 81 -1 -0 1003.8 1001.5
14 16.12 З 5 50 км ясно +3.6 +0.6 81 -2 -1 1004.2 1001.9
15 16.12 З 5 50 км ясно +3.2 +0.9 85 -2 -2 1004.9 1002.6
17 16.12 З 5 29 км 1/1 900 м
[]
+2.7 +0.3 84 -2 -2 1006.1 1003.8
16 16.12 З 5 35 км ясно +3.1 +0.7 84 -2 -2 1005.5 1003.2
18 16.12 З 5 30 км ясно +1.8 -0.7 83 -4 -4 1006.9 1004.6 +1.2 +4.5
19 16.12 СЗ 4 40 км ясно +0.9 -1.3 85 -4 -4 1007.8 1005.5
20 16.12 СЗ 4 45 км ясно +0.5 -1.5 86 -5 -5 1008.8 1006.4
21 16.12 З 4 35 км ясно 0.0 -1.6 89 -5 -5 1009.4 1007.1
23 16.12 СЗ 4 50 км ясно +0.3 -2.1 84 -5 -5 1010.9 1008.6
22 16.12 СЗ 4 40 км ясно -0.2 -1.8 89 -6 -6 1010.1 1007.7
00 17.12 З 5 50 км 4/4 1200 м
[]
+0.7 -2.1 82 -5 -5 1011.5 1009.2
01 17.12 СЗ 5 50 км 4/4 480 м
[]
+0.9 -1.7 83 -5 -5 1012.1 1009.8
02 17.12 СЗ 5 50 км 10/10 420 м
[]
+0.8 -1.2 86 -5 -5 1013.0 1010.6
03 17.12 С 5 50 км 10/10 400 м
[]
+1.1 -0.9 86 -5 -5 1013.7 1011.3
05 17.12 С 5 50 км 1/1 660 м
[]
+1.1 -0.9 86 -5 -5 1015.3 1013.0
04 17.12 С 6 50 км 1/1 480 м
[]
+1.2 -1.2 84 -5 -5 1014.5 1012.2
06 17.12 СЗ 4 50 км 1/0
[]
+0.9 -1.2 86 -4 -4 1016.2 1013.8 -0.4 +1.9
07 17.12 СЗ 4 45 км 1/1 210 м
[]
+0.6 -0.9 90 -5 -5 1017.1 1014.8

 

Местоположение метеостанции Kegnaes (Дания): широта 54.85 долгота 9.98 высота над уровнем моря 17 м.

В архиве по умолчанию представлена погода в Kegnaes за последнюю неделю. Архивные данные за месяц целиком и за предыдущие месяцы, начиная с января 2011 года, Вы можете получить, выбрав интересующий диапазон дат из раскрывающегося списка и нажав кнопку "Ввод!".

Внимание! Время в таблицах - всемирное. Для получения местного времени необходимо прибавить поправку, которая в Kegnaes равна 1 ч.

Смотрите также архив погоды в соседних городах и на ближайших метеорологических станциях:

Погода в Olpenitz (Германия) (20 км)
Погода в Gluecksburg (Германия) (31 км)
Погода в Taasinge (Дания) (42 км)
Погода в Leuchtturm Kiel (Германия) (43 км)
Погода в Toroe (Дания) (45 км)
Погода в Schleswig (Германия) (45 км)
Погода в Schleswig Airport (Германия) (52 км)
Погода в Kiel-Holtenau (Германия) (53 км)
Погода в Arslev (Дания) (59 км)
Погода в Skrydstrup (Дания) (62 км)

Пояснения к столбцам:

Ветер - указаны скорость ветра в м/с - средняя за 10 мин, порывы в срок и между сроками (в фигурных скобках) и направление, откуда дует ветер: С - северный, СВ - северо-восточный, В - восточный, ЮВ - юго-восточный, Ю - южный, ЮЗ - юго-западный, З - западный, СЗ - северо-западный.
Видимость - горизонтальная дальность видимости в метрах или километрах. При видимости от 1 до 10 км при отсутствии осадков обычно наблюдается дымка, при ухудшении видимости до 1 км и менее - туман. В сухую погоду видимость может ухудшаться дымом, пылью или мглою.
Явления - указаны атмосферные явления, наблюдавшиеся в срок или в последний час перед сроком; фигурными скобками обозначены явления, наблюдавшиеся между сроками (за 1-3 часа до срока); квадратными скобками обозначены град или гололедные отложения с указанием их диаметра в мм.
Облачность - указаны через наклонную черту общая и нижняя облачность в баллах и высота нижней границы облаков в метрах; квадратными скобками обозначены формы облаков: Ci - перистые, Cs - перисто-слоистые, Cc - перисто-кучевые, Ac - высококучевые, As - высокослоистые, Sc - слоисто-кучевые, Ns - слоисто-дождевые, Cu - кучевые, Cb - кучево-дождевые. Подробнее классификацию облаков см. в Атласе облаков (PDF).
T - Температура воздуха - температура, измеренная на высоте 2 м над землей.
Td - Температура точки росы - температура, при понижении до которой содержащийся в воздухе водяной пар достигнет насыщения.
f - Относительная влажность воздуха - влажноcть воздуха, измеренная на высоте 2 м над землей.
Te - Эффективная температура - температура, которую ощущает одетый по сезону человек в тени. Характеристика душности погоды. При расчете учитывается влияние влажности воздуха и скорости ветра на теплоощущения человека.
Tes - Эффективная температура на солнце - температура, которую ощущает человек, с поправкой на солнечный нагрев. Характеристика знойности погоды. Зависит от высоты солнца над горизонтом, облачности и скорости ветра. Ночью, в пасмурную погоду, а также при ветре 12 м/с и более поправка равна нулю.
P - Атмосферное давление - приведенное к уровню моря атмосферное давление.
Po - Атмосферное давление - измеренное на уровне метеостанции атмосферное давление.
Tmin - Минимальная температура - минимум температуры воздуха на высоте 2 м над землей.
Tmax - Максимальная температура - максимум температуры воздуха на высоте 2 м над землей.
R - Количество осадков - Количество выпавших осадков за период времени, мм. При наведении курсора мыши на число - период времени, за который выпало указанное количество осадков.
R24 - Количество осадков - Количество выпавших осадков за 24 часа, мм.
S - Снежный покров - Высота снежного покрова, см. При наведении курсора мыши на число - состояние снежного покрова и степень покрытия местности в баллах.